When you browse on this site, cookies collect data to enhance your experience and personalize the content and advertising you see.
Visit our Privacy Policy to learn more. By continuing to use the site, you agree to this use of cookies and data.
  • In France
  • List of Countries
  • For 7 days
  • Water Temperature
  • Weather Map
  • Weather Widgets
  • user-avatar
    Login

    Hourly Weather Wiesbaden

    Today, 27 February, Thursday

    Time Temperature Precipitation Wind Pressure Humidity
    00:00 +1°C° 0 mm 3 mps 742 mmHg 85%
    01:00 0°C° 0 mm 3 mps 742 mmHg 87%
    02:00 0°C° 0 mm 3 mps 742 mmHg 88%
    03:00 0°C° 0 mm 3 mps 742 mmHg 88%
    04:00 0°C° 0 mm 3 mps 742 mmHg 89%
    05:00 0°C° 0 mm 3 mps 741 mmHg 87%
    06:00 +1°C° 0 mm 3 mps 741 mmHg 85%
    07:00 0°C° 0 mm 4 mps 741 mmHg 83%
    08:00 +1°C° 0 mm 4 mps 740 mmHg 81%
    09:00 +1°C° 0 mm 4 mps 739 mmHg 79%
    10:00 +1°C° 0 mm 4 mps 739 mmHg 77%
    11:00 +1°C° 0.2 mm 4 mps 737 mmHg 80%
    12:00 +1°C° 0.2 mm 4 mps 736 mmHg 82%
    13:00 +1°C° 0.2 mm 4 mps 735 mmHg 85%
    14:00 0°C° 1.8 mm 4 mps 733 mmHg 88%
    15:00 0°C° 1.8 mm 5 mps 731 mmHg 92%
    16:00 -1°C° 1.8 mm 5 mps 729 mmHg 96%
    17:00 -1°C° 3.9 mm 5 mps 729 mmHg 97%
    18:00 -2°C° 3.9 mm 6 mps 730 mmHg 97%
    19:00 -2°C° 3.9 mm 6 mps 730 mmHg 98%
    20:00 -2°C° 0.5 mm 6 mps 732 mmHg 98%
    21:00 -1°C° 0.5 mm 5 mps 735 mmHg 97%
    22:00 -1°C° 0.5 mm 5 mps 737 mmHg 97%
    23:00 -1°C° 0.1 mm 5 mps 739 mmHg 97%

    Tomorrow, 28 February, Friday

    Time Temperature Precipitation Wind Pressure Humidity
    00:00 -1°C° 0.1 mm 5 mps 741 mmHg 97%
    01:00 0°C° 0.1 mm 5 mps 743 mmHg 96%
    02:00 -1°C° 0 mm 5 mps 744 mmHg 93%
    03:00 -1°C° 0 mm 4 mps 745 mmHg 90%
    04:00 -2°C° 0 mm 4 mps 746 mmHg 87%
    05:00 -1°C° 0 mm 3 mps 746 mmHg 88%
    06:00 -2°C° 0 mm 3 mps 747 mmHg 88%
    07:00 -4°C° 0 mm 3 mps 748 mmHg 89%
    08:00 -2°C° 0 mm 3 mps 749 mmHg 89%
    09:00 -1°C° 0 mm 3 mps 749 mmHg 88%
    10:00 0°C° 0 mm 3 mps 750 mmHg 88%
    11:00 +1°C° 0 mm 3 mps 750 mmHg 87%
    12:00 +2°C° 0 mm 3 mps 750 mmHg 86%
    13:00 +3°C° 0 mm 3 mps 750 mmHg 85%
    14:00 +3°C° 0 mm 3 mps 749 mmHg 84%
    15:00 +4°C° 0 mm 2 mps 748 mmHg 83%
    16:00 +4°C° 0 mm 2 mps 748 mmHg 82%
    17:00 +4°C° 0 mm 2 mps 747 mmHg 82%
    18:00 +4°C° 0 mm 2 mps 746 mmHg 81%
    19:00 +3°C° 0 mm 2 mps 746 mmHg 80%
    20:00 +2°C° 0.3 mm 3 mps 745 mmHg 82%
    21:00 +2°C° 0.3 mm 3 mps 744 mmHg 83%
    22:00 +2°C° 0.3 mm 3 mps 744 mmHg 85%
    23:00 +2°C° 0.2 mm 3 mps 743 mmHg 85%

    Day after tomorrow, 29 February, Saturday

    Time Temperature Precipitation Wind Pressure Humidity
    00:00 +2°C° 0.2 mm 3 mps 742 mmHg 85%
    01:00 +3°C° 0.2 mm 3 mps 741 mmHg 86%
    02:00 +3°C° 0 mm 3 mps 741 mmHg 87%
    03:00 +3°C° 0 mm 3 mps 740 mmHg 88%
    04:00 +3°C° 0 mm 3 mps 739 mmHg 89%
    05:00 +3°C° 0.3 mm 3 mps 738 mmHg 89%
    06:00 +3°C° 0.3 mm 3 mps 737 mmHg 90%
    07:00 +4°C° 0.3 mm 2 mps 736 mmHg 90%
    08:00 +4°C° 0 mm 3 mps 735 mmHg 87%
    09:00 +5°C° 0 mm 3 mps 735 mmHg 85%
    10:00 +5°C° 0 mm 3 mps 734 mmHg 83%
    11:00 +7°C° 0 mm 4 mps 734 mmHg 80%
    12:00 +8°C° 0 mm 5 mps 733 mmHg 77%
    13:00 +10°C° 0 mm 6 mps 732 mmHg 74%
    14:00 +10°C° 0.2 mm 6 mps 732 mmHg 75%
    15:00 +10°C° 0.2 mm 6 mps 732 mmHg 76%
    16:00 +9°C° 0.2 mm 7 mps 731 mmHg 77%
    17:00 +8°C° 0.5 mm 6 mps 732 mmHg 79%
    18:00 +7°C° 0.5 mm 5 mps 733 mmHg 80%
    19:00 +5°C° 0.5 mm 4 mps 733 mmHg 81%
    20:00 +5°C° 0.1 mm 4 mps 734 mmHg 81%
    21:00 +4°C° 0.1 mm 4 mps 734 mmHg 81%
    22:00 +3°C° 0.1 mm 5 mps 735 mmHg 81%
    23:00 +3°C° 0 mm 5 mps 735 mmHg 80%

    1 March, Sunday

    Time Temperature Precipitation Wind Pressure Humidity
    00:00 +2°C° 0 mm 5 mps 735 mmHg 80%
    01:00 +2°C° 0 mm 6 mps 735 mmHg 79%
    02:00 +2°C° 0 mm 6 mps 735 mmHg 79%
    03:00 +2°C° 0 mm 6 mps 735 mmHg 79%
    04:00 +2°C° 0 mm 6 mps 735 mmHg 79%
    05:00 +2°C° 0 mm 6 mps 735 mmHg 80%
    06:00 +2°C° 0 mm 6 mps 735 mmHg 80%
    07:00 +2°C° 0 mm 7 mps 734 mmHg 81%
    08:00 +2°C° 0.3 mm 7 mps 734 mmHg 79%
    09:00 +3°C° 0.3 mm 7 mps 734 mmHg 77%
    10:00 +3°C° 0.3 mm 7 mps 735 mmHg 74%
    11:00 +4°C° 0.1 mm 7 mps 734 mmHg 70%
    12:00 +5°C° 0.1 mm 7 mps 734 mmHg 66%
    13:00 +6°C° 0.1 mm 8 mps 734 mmHg 62%
    14:00 +6°C° 0.1 mm 7 mps 734 mmHg 64%
    15:00 +7°C° 0.1 mm 6 mps 733 mmHg 67%
    16:00 +7°C° 0.1 mm 5 mps 733 mmHg 69%
    17:00 +6°C° 0 mm 4 mps 732 mmHg 74%
    18:00 +7°C° 0 mm 3 mps 732 mmHg 79%
    19:00 +5°C° 0 mm 3 mps 732 mmHg 84%
    20:00 +5°C° 0.4 mm 3 mps 732 mmHg 85%
    21:00 +5°C° 0.4 mm 2 mps 732 mmHg 87%
    22:00 +5°C° 0.4 mm 2 mps 732 mmHg 88%
    23:00 +4°C° 0.1 mm 3 mps 733 mmHg 86%

    2 March, Monday

    Time Temperature Precipitation Wind Pressure Humidity
    00:00 +4°C° 0.1 mm 4 mps 734 mmHg 84%
    01:00 +3°C° 0.1 mm 4 mps 734 mmHg 82%
    02:00 +3°C° 0 mm 4 mps 734 mmHg 83%
    03:00 +1°C° 0 mm 4 mps 734 mmHg 83%
    04:00 +1°C° 0 mm 4 mps 734 mmHg 84%
    05:00 +1°C° 0 mm 4 mps 734 mmHg 85%
    06:00 +1°C° 0 mm 3 mps 734 mmHg 86%
    07:00 +1°C° 0 mm 3 mps 734 mmHg 87%
    08:00 +2°C° 0 mm 3 mps 734 mmHg 84%
    09:00 +3°C° 0 mm 4 mps 734 mmHg 81%
    10:00 +4°C° 0 mm 4 mps 734 mmHg 78%
    11:00 +4°C° 0 mm 4 mps 734 mmHg 77%
    12:00 +4°C° 0 mm 4 mps 734 mmHg 76%
    13:00 +5°C° 0 mm 4 mps 734 mmHg 76%
    14:00 +5°C° 0.2 mm 3 mps 733 mmHg 80%
    15:00 +4°C° 0.2 mm 3 mps 733 mmHg 85%
    16:00 +5°C° 0.2 mm 2 mps 733 mmHg 89%
    17:00 +5°C° 0.3 mm 2 mps 733 mmHg 90%
    18:00 +5°C° 0.3 mm 2 mps 733 mmHg 91%
    19:00 +6°C° 0.3 mm 1 mps 734 mmHg 93%
    20:00 +6°C° 0 mm 1 mps 734 mmHg 92%
    21:00 +6°C° 0 mm 1 mps 735 mmHg 92%
    22:00 +6°C° 0 mm 1 mps 735 mmHg 91%
    23:00 +4°C° 0.1 mm 0 mps 735 mmHg 92%

    3 March, Tuesday

    Time Temperature Precipitation Wind Pressure Humidity
    00:00 +4°C° 0.1 mm 0 mps 736 mmHg 92%
    01:00 +4°C° 0.1 mm 0 mps 736 mmHg 92%
    02:00 +4°C° 0.7 mm 0 mps 736 mmHg 93%
    03:00 +5°C° 0.7 mm 1 mps 737 mmHg 94%
    04:00 +5°C° 0.7 mm 1 mps 737 mmHg 95%
    05:00 +4°C° 0.7 mm 2 mps 737 mmHg 93%
    06:00 +3°C° 0.7 mm 2 mps 738 mmHg 92%
    07:00 +3°C° 0.7 mm 2 mps 739 mmHg 91%
    08:00 +3°C° 0.1 mm 2 mps 739 mmHg 88%
    09:00 +3°C° 0.1 mm 3 mps 740 mmHg 85%
    10:00 +3°C° 0.1 mm 3 mps 741 mmHg 82%
    11:00 +4°C° 0.1 mm 3 mps 741 mmHg 77%
    12:00 +5°C° 0.1 mm 3 mps 742 mmHg 72%
    13:00 +5°C° 0.1 mm 3 mps 742 mmHg 67%
    14:00 +5°C° 0.2 mm 3 mps 742 mmHg 65%
    15:00 +7°C° 0.2 mm 3 mps 742 mmHg 63%
    16:00 +7°C° 0.2 mm 3 mps 741 mmHg 61%
    17:00 +5°C° 0.1 mm 3 mps 741 mmHg 65%
    18:00 +5°C° 0.1 mm 2 mps 741 mmHg 70%
    19:00 +4°C° 0.1 mm 2 mps 741 mmHg 75%
    20:00 +3°C° 0 mm 2 mps 741 mmHg 76%
    21:00 +4°C° 0 mm 1 mps 742 mmHg 77%
    22:00 +4°C° 0 mm 1 mps 742 mmHg 77%
    23:00 +4°C° 0 mm 1 mps 741 mmHg 78%
    Show more